SCP
0 0 0 0 1 0 0 0 0 0 0 0 0 0 0 0 0 0 0 0 0 0 0 0 0 0 0 0 0 0 0 0 0 0 0 0 0 0
0 0 0 0 0 0 0 0 0 0 0 0 0 0 0 0 0 0 0 0 0 0 0 0 0 0 0 0 0 0 0 0 0 0 0 0 0 0
0 0 0 0 0 0 0 0 0 0 0 0 0 0 0 0 0 0 0 0 0 0 0 0 0 0 0 0 0 0 0 0 0 0 0 0 0 0
0 0 0 0 0 0 0 0 0 0 0 0 0 0 0 0 0 0 0 0 0 0 0 0 0 0 0 0 0 0 0 0 0 0 0 0 0 0
0 0 0 0 0 0 0 0 0 0 0 0 0 0 0 0 0 0 0 0 0 0 0 0 0 0 0 0 0 0 0 0 0 0 0 0 0 0
0 0 0 0 0 0 0 0 0 0 0 0 0 0 0 0 0 0 0 0 0 0 0 0 0 0 0 0 0 0 0 0 0 0 0 0 0 0
0 0 0 0 0 0 0 0 0 0 0 0 0 0 0 0 0 0 0 0 0 0 0 0 0 0 0 0 0 0 0 0 0 0 0 0 0 0
0 0 0 0 0 0 0 0 0 0 0 0 0 0 0 0 0 0 0 0 0 0 0 0 0 0 0 0 0 0 0 0 0 0 0 0 0 0
0 0 0 0 0 0 0 0 0 0 0 0 0 0 0 0 0 0 0 0 0 0 0 0 0 0 0 0 0 0 0 0 0 0 0 0 0 0
0 0 0 0 0 0 0 0 0 0 0 0 0 0 0 0 0 0 0 0 0 0 0 0 0 0 0 0 0 0 0 0 0 0 0 0 0 0
0 0 0 0 0 0 0 0 0 0 0 0 0 0 0 0 0 0 0 0 0 0 0 0 0 0 0 0 0 0 0 0 0 0 0 0 0 0
0 0 0 0 0 0 0 0 0 0 0 0 0 0 0 0 0 0 0 0 0 0 0 0 0 0 0 0 0 0 0 0 0 0 0 0 0 0
0 0 0 0 0 0 0 0 0 0 0 0 0 0 0 0 0 0 0 0 0 0 0 0 0 0 0 0 0 0 0 0 0 0 0 0 0 0
0 0 0 0 0 0 0 0 0 0 0 0 0 0 0 0 0 0 0 0 0 0 0 0 0 0 0 0 0 0 0 0 0 0 0 0 0 0
0 0 0 0 0 0 0 0 0 0 0 0 0 0 0 0 0 0 0 0 0 0 0 0 0 0 0 0 0 0 0 0 0 0 0 0 0 0
0 0 0 0 0 0 0 0 0 0 0 0 0 0 0 0 0 0 0 0 0 0 0 0 0 0 0 0 0 0 0 0 0 0 0 0 0 0
0 0 0 0 0 0 0 0 0 0 0 0 0 0 0 0 0 0 0 0 0 0 0 0 0 0 0 0 0 0 0 0 0 0 0 0 0 0
0 0 0 0 0 0 0 0 0 0 0 0 0 0 0 0 0 0 0 0 0 0 0 0 0 0 0 0 0 0 0 0 0 0 0 0 0 0
0 0 0 0 0 0 0 0 0 0 0 0 0 0 0 0 0 0 0 0 0 0 0 0 0 0 0 0 0 0 0 0 0 0 0 0 0 0
0 0 0 0 0 0 0 0 0 0 0 0 0 0 0 0 0 0 0 0 0 0 0 0 0 0 0 0 0 0 0 0 0 0 0 0 0 0
0 0 0 0 0 0 0 0 0 0 0 0 0 0 0 0 0 0 0 0 0 0 0 0 0 0 0 0 0 0 0 0 0 0 0 0 0 0
0 0 0 0 0 0 0 0 0 0 0 0 0 0 0 0 0 0 0 0 0 0 0 0 0 0 0 0 0 0 0 0 0 0 0 0 0 0
0 0 0 0 0 0 0 0 0 0 0 0 0 0 0 0 0 0 0 0 0 0 0 0 0 0 0 0 0 0 0 0 0 0 0 0 0 0
Wind_Speed
8 9 7 6 6 6 5 6 6 5 5 4 3 4 5 5 9 8 8 12 13 12 11 11 11 10 9 8 7 6 4 3 3 3 5 6 7 9
7 9 8 6 6 6 6 5 5 5 5 4 3 3 5 5 9 8 8 13 13 13 12 12 11 11 10 9 7 6 5 4 3 3 5 6 7 8
9 10 10 8 6 6 6 6 5 5 5 4 3 4 5 6 6 6 6 7 8 12 12 12 11 11 10 9 8 6 5 4 3 3 4 5 6 7
11 10 11 8 9 8 7 7 6 6 6 6 4 4 5 6 6 6 5 5 5 10 12 11 11 11 10 10 8 7 5 4 2 2 3 3 5 7
11 11 11 10 9 8 8 7 6 6 5 6 5 4 4 4 5 4 5 4 4 7 9 10 11 11 10 10 9 7 5 4 3 2 1 3 4 6
11 11 11 11 10 9 9 9 7 7 7 7 6 5 4 4 5 5 4 3 3 4 5 6 9 9 9 9 9 7 6 5 4 2 1 2 4 6
10 10 10 11 12 10 9 9 8 7 7 7 6 5 5 6 6 5 5 3 2 3 3 3 4 4 5 7 8 7 6 5 4 2 1 1 3 5
9 8 9 10 11 12 13 14 13 11 9 8 6 8 8 6 5 6 6 5 3 3 4 2 3 4 3 3 6 8 7 5 4 3 1 1 3 5
8 8 7 8 9 7 8 9 10 12 13 10 10 10 9 8 8 7 7 5 3 5 5 3 2 3 3 3 7 8 7 5 4 3 1 1 3 5
8 8 8 8 8 7 6 6 6 6 8 7 8 8 7 8 8 7 7 4 4 3 4 3 2 2 2 2 6 7 6 5 4 3 1 1 3 4
7 7 8 8 10 10 7 7 6 4 5 7 7 7 8 9 9 7 7 6 4 2 1 3 3 2 2 1 3 5 5 5 4 3 2 2 3 4
4 5 8 9 10 10 8 8 8 7 6 6 5 6 6 7 9 8 8 7 5 3 2 3 3 3 2 1 1 2 3 4 4 3 2 2 3 2
3 4 5 8 10 9 8 7 10 9 7 7 5 5 5 4 4 4 4 5 5 4 5 5 3 3 3 2 1 1 2 2 2 1 1 2 3 3
3 3 4 7 7 7 7 9 12 10 6 6 5 4 5 4 4 4 5 4 4 5 7 6 4 4 4 3 2 1 1 2 2 1 0 1 3 4
2 3 4 5 5 6 9 11 9 7 7 7 6 5 4 5 6 6 7 8 8 6 5 3 5 5 4 4 4 2 1 0 1 1 1 0 0 1
1 1 2 3 4 6 8 7 5 6 6 6 6 5 5 5 6 6 6 6 6 5 5 5 4 5 3 4 4 4 2 2 1 1 0 0 0 0
2 1 2 3 4 4 4 4 5 5 6 6 7 7 6 6 5 5 5 5 5 4 4 4 6 6 6 4 4 4 3 2 2 1 1 1 1 1
1 1 2 3 4 5 5 5 4 5 6 6 7 7 7 7 6 5 5 6 7 6 5 4 5 5 5 5 4 3 3 2 1 1 1 1 1 2
0 1 2 3 4 5 5 5 5 5 6 6 7 7 7 7 7 6 6 7 6 6 5 4 4 5 5 3 2 3 2 2 2 1 1 1 1 2
1 2 2 3 3 4 5 6 5 5 5 6 7 7 7 7 7 7 6 7 7 6 5 3 2 3 4 5 3 1 2 2 2 2 1 1 1 2
1 1 2 3 4 4 5 5 6 5 6 6 6 7 7 7 7 7 7 9 8 6 6 3 3 6 6 5 5 2 2 3 2 2 1 1 1 1
1 1 2 3 4 5 5 5 6 6 6 6 6 6 6 6 8 8 7 7 6 6 6 5 4 4 3 5 5 5 3 2 4 5 3 1 1 1
1 1 2 2 3 4 5 6 6 5 5 5 6 6 6 6 6 7 7 7 7 8 7 6 4 3 4 5 6 5 5 3 2 3 2 3 3 2
Wind_Direction
220 218 221 227 217 205 202 195 198 220 239 232 221 205 189 176 174 178 180 184 185 186 188 188 189 190 187 185 186 194 202 218 250 278 292 301 310 318
219 219 221 224 215 201 199 209 203 203 233 232 235 200 189 182 178 179 181 180 186 187 188 189 188 186 183 182 185 188 196 210 237 270 288 300 312 321
222 221 221 216 212 202 197 205 205 198 221 234 234 191 190 183 174 176 172 176 183 186 188 189 186 184 181 181 185 186 194 204 226 264 288 302 318 328
221 220 220 216 213 204 199 205 206 201 203 213 216 195 192 182 172 173 172 173 176 181 184 187 184 181 182 183 184 185 191 198 216 259 290 313 325 328
219 218 217 211 215 209 202 204 202 202 196 201 208 198 190 177 168 165 164 166 167 173 177 183 183 182 183 183 182 180 179 186 199 224 283 320 326 325
221 217 214 212 212 209 205 203 197 192 190 193 192 190 188 176 167 168 169 163 158 157 167 175 179 181 181 182 177 174 176 182 190 200 248 316 325 325
221 216 217 218 217 216 208 198 191 191 188 186 190 188 187 180 183 173 169 147 138 150 146 162 161 163 173 175 172 172 176 181 184 193 229 318 331 328
220 217 217 215 216 224 220 210 202 196 192 189 196 193 195 188 175 166 159 159 180 164 142 161 154 163 163 162 169 170 175 175 176 182 199 330 334 329
217 216 218 216 214 203 206 207 208 206 201 197 194 199 193 186 174 172 173 172 177 160 139 156 149 155 151 157 166 168 171 171 170 171 160 5 341 337
222 214 210 207 205 195 190 197 201 203 193 191 194 195 190 180 179 173 160 130 102 125 132 141 145 141 129 142 165 165 167 165 161 155 130 31 358 348
223 213 206 202 197 194 189 189 188 185 165 166 170 168 166 169 163 145 149 149 146 154 130 125 129 110 104 128 152 159 163 160 157 149 125 44 12 359
219 209 209 206 195 192 190 184 181 178 163 150 144 142 153 154 162 173 169 162 147 154 164 122 125 121 111 84 126 142 148 156 152 141 102 43 15 23
227 217 205 198 197 197 199 189 179 170 159 153 146 145 145 149 158 153 155 164 156 150 157 134 133 128 124 123 102 130 127 123 123 127 98 26 10 15
246 233 202 193 195 191 185 170 164 161 154 147 145 150 151 151 146 126 110 96 92 128 148 139 137 147 132 125 133 106 99 116 118 122 102 4 10 1
265 236 207 191 188 177 166 163 163 160 155 153 156 159 149 146 135 116 100 92 78 77 96 108 127 136 126 134 140 140 122 115 115 108 81 60 358 356
327 169 181 176 163 151 153 155 160 160 158 153 149 143 137 137 135 131 127 118 97 73 56 71 105 122 118 123 137 145 140 151 146 102 82 15 342 8
288 250 173 161 153 149 147 145 147 146 144 143 144 143 142 137 133 130 129 120 116 124 100 74 74 78 81 108 123 128 126 115 140 133 87 44 348 357
288 178 177 166 158 156 150 145 146 149 148 147 147 147 146 144 136 130 129 126 126 127 125 128 119 97 74 47 46 125 118 122 127 108 97 96 350 336
286 167 164 155 152 153 152 150 148 147 145 148 145 144 142 141 141 140 136 128 126 128 135 144 140 126 122 113 18 25 124 134 124 105 92 111 213 286
81 139 148 145 146 145 143 141 139 141 142 143 141 142 143 144 143 142 140 137 135 132 132 135 136 135 136 140 137 65 44 132 132 125 90 34 331 311
53 93 119 130 132 132 135 136 138 139 139 139 140 142 146 144 141 140 138 139 135 135 141 141 124 112 105 102 102 94 42 54 88 125 128 83 31 8
67 87 98 121 128 132 135 135 131 129 134 138 140 141 144 143 142 141 142 142 139 133 126 122 126 115 104 115 121 123 107 68 61 64 61 121 153 152
65 87 103 118 128 132 133 132 131 132 136 139 140 142 141 136 135 135 136 135 132 130 127 125 112 92 98 115 121 121 118 111 94 73 34 28 57 69